Weather History for Lamar, CO

Change the Weather History Date:

Friday, February 8, 2013

  Actual Average Record
Temperature  
Mean Temperature 39 °F 32 °F  
Max Temperature 59 °F 48 °F 76 °F (1922)
Min Temperature 18 °F 16 °F -21 °F (1933)
Degree Days  
Heating Degree Days 26 33  
Month to date heating degree days 219 269  
Since 1 July heating degree days 3438 3700  
Cooling Degree Days 0 0  
Month to date cooling degree days 0 0  
Year to date cooling degree days 0 0  
Moisture  
Dew Point 20 °F    
Average Humidity 43    
Maximum Humidity 62    
Minimum Humidity 24    
Precipitation  
Precipitation 0.00 in 0.01 in 0.51 in (2009)
Month to date precipitation 0.00 0.11  
Year to date precipitation 0.02 0.41  
Sea Level Pressure  
Sea Level Pressure 29.89 in    
Wind  
Wind Speed 23 mph (South)    
Max Wind Speed 44 mph    
Max Gust Speed 54 mph    
Visibility 7 miles    
Events      
T = Trace of Precipitation, MM = Missing Value Source: NWS Daily Summary

Daily Weather History Graph

Daily Weather History Graph

Search for Another Location

Airport:

Trip Planner

Search our weather history database for the weather conditions in past years. The results will help you decide how hot, cold, wet, or windy it might be!

Date:

Astronomy

Feb. 08, 2013 Rise Set
Actual Time 6:48 AM MST 5:22 PM MST
Civil Twilight 6:21 AM MST 5:49 PM MST
Nautical Twilight 5:49 AM MST 6:20 PM MST
Astronomical Twilight 5:19 AM MST 6:51 PM MST
Moon 5:17 AM MST (2/8) 3:58 PM MST (2/8)
Length of Visible Light 11h 28m
Length of Day
10h 33m
Waning Crescent, 3% of the Moon is Illuminated
Feb 8
Waning Crescent
Feb 10
New
Feb 17
First Quarter
Feb 25
Full
Mar 4
Last Quarter

Hourly Weather History & Observations

Time (MST) Temp. Windchill Dew Point Humidity Pressure Visibility Wind Dir Wind Speed Gust Speed Precip Events Conditions
1:53 AM 21.9 °F - 10.0 °F 60% 30.13 in 10.0 mi Calm Calm - N/A   Clear
2:53 AM 24.1 °F 18.2 °F 12.9 °F 62% 30.11 in 10.0 mi SE 4.6 mph - N/A   Clear
3:53 AM 30.9 °F 24.3 °F 17.1 °F 57% 30.06 in 10.0 mi SSW 6.9 mph - N/A   Clear
4:53 AM 30.9 °F 22.2 °F 17.1 °F 57% 30.05 in 10.0 mi SW 10.4 mph - N/A   Clear
5:53 AM 36.0 °F 26.7 °F 19.0 °F 50% 30.05 in 10.0 mi SSW 15.0 mph 21.9 mph N/A   Clear
6:53 AM 34.0 °F 26.0 °F 19.0 °F 54% 30.08 in 10.0 mi SSW 10.4 mph - N/A   Clear
7:53 AM 41.0 °F 32.2 °F 19.9 °F 43% 30.06 in 10.0 mi SSW 18.4 mph 26.5 mph N/A   Clear
8:53 AM 46.0 °F 38.0 °F 19.9 °F 35% 30.04 in 10.0 mi South 21.9 mph 31.1 mph N/A   Clear
9:53 AM 51.1 °F - 19.9 °F 29% 30.01 in 10.0 mi South 27.6 mph 35.7 mph N/A   Clear
10:53 AM 52.0 °F - 21.0 °F 30% 29.99 in 10.0 mi South 31.1 mph 40.3 mph N/A   Clear
11:53 AM 55.9 °F - 21.0 °F 26% 29.94 in 10.0 mi South 29.9 mph 42.6 mph N/A   Clear
12:53 PM 57.9 °F - 21.0 °F 24% 29.90 in 10.0 mi South 39.1 mph 46.0 mph N/A   Clear
1:53 PM 57.0 °F - 21.9 °F 26% 29.86 in 10.0 mi South 39.1 mph 49.5 mph N/A   Clear
2:51 PM 55.4 °F - 21.2 °F 26% 29.83 in 2.5 mi South 29.9 mph 47.2 mph N/A   Haze
2:53 PM 55.0 °F - 21.0 °F 27% 29.83 in 2.5 mi South 38.0 mph 50.6 mph N/A   Haze
3:06 PM 53.6 °F - 21.2 °F 28% 29.82 in 4.0 mi South 42.6 mph 54.1 mph N/A   Haze
3:41 PM 55.4 °F - 21.2 °F 26% 29.83 in 5.0 mi South 29.9 mph 43.7 mph N/A   Haze
3:53 PM 54.0 °F - 21.9 °F 29% 29.81 in 6.0 mi South 34.5 mph 49.5 mph N/A   Haze
4:00 PM 53.6 °F - 21.2 °F 28% 29.83 in 2.5 mi South 32.2 mph 46.0 mph N/A   Haze
4:12 PM 53.6 °F - 21.2 °F 28% 29.84 in 1.8 mi South 29.9 mph 36.8 mph N/A   Haze
4:16 PM 53.6 °F - 21.2 °F 28% 29.84 in 2.0 mi South 27.6 mph 36.8 mph N/A   Haze
4:24 PM 53.6 °F - 21.2 °F 28% 29.83 in 1.8 mi South 26.5 mph 35.7 mph N/A   Haze
4:48 PM 51.8 °F - 21.2 °F 30% 29.82 in 3.0 mi South 31.1 mph 44.9 mph N/A   Haze
4:53 PM 52.0 °F - 21.9 °F 31% 29.81 in 4.0 mi South 31.1 mph 44.9 mph N/A   Haze
5:05 PM 51.8 °F - 21.2 °F 30% 29.81 in 2.5 mi South 27.6 mph 36.8 mph N/A   Haze
5:14 PM 51.8 °F - 21.2 °F 30% 29.82 in 3.0 mi South 28.8 mph 42.6 mph N/A   Haze
5:38 PM 50.0 °F - 21.2 °F 32% 29.81 in 9.0 mi South 31.1 mph 39.1 mph N/A   Scattered Clouds
5:53 PM 50.0 °F - 21.9 °F 33% 29.80 in 10.0 mi South 26.5 mph 36.8 mph N/A   Clear
6:53 PM 48.0 °F - 21.9 °F 36% 29.81 in 9.0 mi South 24.2 mph 35.7 mph N/A   Clear
7:53 PM 46.9 °F - 21.9 °F 37% 29.80 in 10.0 mi South 26.5 mph 34.5 mph N/A   Clear
8:53 PM 46.0 °F 37.4 °F 23.0 °F 40% 29.78 in 10.0 mi SSW 25.3 mph 29.9 mph N/A   Clear
9:53 PM 46.0 °F 37.6 °F 21.0 °F 37% 29.77 in 10.0 mi SSW 24.2 mph 33.4 mph N/A   Clear
10:53 PM 46.0 °F 36.9 °F 19.0 °F 34% 29.73 in 10.0 mi South 28.8 mph 41.4 mph N/A   Clear
11:53 PM 44.1 °F 34.0 °F 18.0 °F 35% 29.72 in 10.0 mi South 29.9 mph 40.3 mph N/A   Clear